Find Starlink 3090

NORAD ID: 49132 Int'l Des: 2021-082 Owner: SPXS Country: US Constellation: starlink operational
LEOCIRCULAR

Live Position

Loading 3D Globe...

About Starlink 3090

Description loading...

Upcoming Passes

Passes for default location (London). Set your location on the main map for personalized predictions.

Altitude History

Loading altitude history...

Two-Line Element Set

1 49132U 21082C 26121.51273985 .00000453 00000-0 45731-4 0 9990
2 49132 69.9992 161.1444 0003707 269.2711 90.8023 14.98331066253891
Epoch: May 1, 2026 • Age: 8 hours

Current Status

Altitude 592.9 km
Velocity 7.56 km/s
Sub-Earth Point -62.31°S, 133.2°W
Launch Date Sep 14, 2021
Age 4.6 years
Type internet

Technical Details

Classification Payload
Mass 297.00 kg
Dry Mass 275.00 kg
Total Mass 297.00 kg
Length 0.20 m
Diameter 2.80 m
Span 9.00 m
Shape Box + pan
Manufacturer SPXS
Bus Type Starlink
Phase Status In Orbit
Owner/State SPXS/US

Most Searched